Regional Weather Roundup
Issued by NWS Jackson, KY

Home | Current Version | Previous Version | Text Only | Print | Product List | Glossary Off
Versions: 1 2 3 4 5 6 7 8 9 10 11 12 13 14 15 16 17 18 19 20 21 22 23 24 25 26 27 28 29 30 31 32 33 34 35 36 37 38 39 40 41 42 43 44 45 46 47 48 49 50

000
ASUS43 KJKL 250919
RWRJKL

EAST KENTUCKY HOURLY WEATHER ROUNDUP
NATIONAL WEATHER SERVICE JACKSON KY
500 AM EDT FRI JUL 25 2014

NOTE: "FAIR" INDICATES FEW OR NO CLOUDS BELOW 12,000 FEET WITH
NO SIGNIFICANT WEATHER AND/OR OBSTRUCTIONS TO VISIBILITY.

* THESE REPORTS ARE NOT UNDER NWS QUALITY CONTROL AND MAY NOT
  REPORT WEATHER SUCH AS PRECIPITATION AND FOG.

KYZ079-080-083-085-087-088-110-112-115-119-120-251000
...EASTERN KENTUCKY...

CITY           SKY/WX    TMP DP  RH WIND       PRES   REMARKS
JACKSON        FOG       60  58  92 CALM      30.07S VSB<1/4
LONDON         FOG       59  57  93 E3        30.07S VSB 1/4
SOMERSET*      FOG       61  61 100 CALM      30.07S VSB 1/4
MONTICELLO*    FOG       58  58 100 CALM      30.07S VSB<1/4
WILLIAMSBURG*  CLOUDY    59  59 100 CALM      30.06S
MIDDLESBORO*   CLOUDY    61  60  97 CALM      30.07S FOG
HARLAN APT*    CLOUDY    59  59 100 MISG      30.07S
HAZARD APT*    FOG       61  61 100 CALM      30.07  VSB 1/4
BLACK MTN*       N/A     52  52 100 E2          N/A
PIKEVILLE APT* FOG       61  61 100 CALM      30.08R VSB 0
BIG SANDY*     FOG       60  60 100 CALM      30.07R VSB 1/4
MOREHEAD APT*    N/A     61  54  77 CALM      30.09R
ASHLAND*       CLEAR     57  52  82 CALM      30.05R
$$

KYZ035-036-041-042-044-050-067-078-099-251000
...CENTRAL KENTUCKY...

CITY           SKY/WX    TMP DP  RH WIND       PRES   REMARKS
MT STERLING*   CLEAR     55  55 100 CALM      30.08R
FLEMING/MASON* CLEAR     59  54  82 NE5       30.07S
DANVILLE*      CLEAR     55  54  94 CALM      30.08R
RICHMOND*      CLOUDY    55  54  94 CALM      30.06R VSB<1/4
LEXINGTON      CLEAR     56  53  90 N3        30.07R
FRANKFORT      MOCLDY    56  54  93 CALM      30.07R
$$

KYZ091>093-OHZ055-061-077-WVZ005-015-034-035-042-251000
...SOUTHERN OHIO/WEST VIRGINIA...

CITY           SKY/WX    TMP DP  RH WIND       PRES   REMARKS
COVINGTON      PTCLDY    60  50  69 E3        30.07S
COLUMBUS       CLEAR     56  50  80 CALM      30.06S
DAYTON         PTCLDY    57  50  77 CALM      30.08S
WILMINGTON     CLEAR     54  49  83 E5        30.06F
HUNTINGTON     CLEAR     58  57  97 CALM      30.05S
CHARLESTON     FOG       62  62 100 CALM      30.05F VSB 1
PINEVILLE*     CLOUDY    62  62 100 MISG      30.14R FOG
BECKLEY        CLOUDY    58  57  97 E3        30.10R FOG
BLUEFIELD      MOCLDY    59  55  87 E3        30.11R FOG
$$

VAZ002-007-008-TNZ017-027-036-066-071-251000
...SOUTHWEST VIRGINIA/EAST TENNESSEE...

CITY           SKY/WX    TMP DP  RH WIND       PRES   REMARKS
WISE*          CLOUDY    59  59 100 N3        30.12R FOG
JONESVILLE*    FOG       57  57 100 CALM      30.09R VSB<1/4
ABINGDON*      CLEAR     61  59  96 CALM      30.08R FOG
BRISTOL        CLEAR     60  57  89 CALM      30.05R
KNOXVILLE      CLEAR     63  62  97 NE3       30.02R
OAK RIDGE      MOCLDY    64  61  90 CALM      30.04F
CROSSVILLE     FOG       59  57  93 CALM      30.06S VSB 1/4
NASHVILLE      CLEAR     64  58  80 NE6       30.04R
$$

...KEY TO REMARKS...
VSB - VISIBILITY IN MILES
WCI - WIND CHILL INDEX
HX  - HEAT INDEX

$$


USA.gov is the U.S. government's official web portal to all federal, state and local government web resources and services.